This demonstration page uses our WeatherBlox Daily Observations layout. Learn more.

Left ArrowRight Arrow

30.21309, -93.2044

Hourly Observations for July 24, 2019

Temp ( °F °C ) Dew Point ( °F °C ) Humidity (%) Winds ( mph kmh ) Pressure ( in mb ) Visibility ( mi km ) Precip ( " mm )
12:15 am 00:15 Clear 72 22 65 18.2 79 79 NNE 13 20 30.02 1017 10 16 0.00 0.00
12:35 am 00:35 Clear 72 22.1 64 17.5 75 75 NNE 9 15 30.02 1017 10 16 0.00 0.00
12:55 am 00:55 Clear 71 21.8 63 17.1 75 75 NNE 9 15 30.02 1017 10 16 0.00 0.00
1:15 am 01:15 Clear 71 21.5 63 17 76 76 NNE 7 11 30.01 1016 10 16 0.00 0.00
1:35 am 01:35 Clear 70 21 63 17 78 78 NNE 6 9 30.01 1016 10 16 0.00 0.00
2:15 am 02:15 Clear 69 20.5 63 17.1 81 81 NNE 8 13 30.01 1016 10 16 0.00 0.00
2:35 am 02:35 Clear 68 20.2 63 17 82 82 N 6 9 30.01 1016 10 16 0.00 0.00
2:55 am 02:55 Clear 68 20 62 16.9 82 82 N 6 9 30.02 1017 10 16 0.00 0.00
3:15 am 03:15 Clear 68 19.8 62 16.7 82 82 N 8 13 30.02 1017 10 16 0.00 0.00
3:35 am 03:35 Clear 67 19.6 62 16.6 83 83 N 9 15 30.02 1017 10 16 0.00 0.00
3:55 am 03:55 Clear 67 19.5 62 16.6 83 83 NNE 12 19 30.02 1017 10 16 0.00 0.00
4:15 am 04:15 Mostly Cloudy 67 19.5 62 16.6 83 83 N 12 19 30.03 1017 10 16 0.00 0.00
4:35 am 04:35 Cloudy 67 19.6 62 16.6 83 83 NNE 12 19 30.03 1017 10 16 0.00 0.00
4:55 am 04:55 Cloudy 67 19.6 62 16.5 82 82 NNE 10 17 30.03 1017 10 16 0.00 0.00
6:45 am 06:45 Mostly Sunny 66 19 63 17 88 88 NNE 14 22 30.04 1017 10 16 0.00 0.00
7:55 am 07:55 Mostly Sunny 70 21 63 17 78 78 NNE 9 15 30.05 1018 10 16 0.00 0.00
8:45 am 08:45 Mostly Sunny 73 23 64 18 74 74 NNE 12 19 30.06 1018 10 16 0.00 0.00
9:55 am 09:55 Mostly Sunny 77 25 64 18 65 65 NNE 12 19 30.07 1018 10 16 0.00 0.00
10:50 am 10:50 Mostly Sunny 79 26 64 18 61 61 NNE 13 20 30.07 1018 10 16 0.00 0.00
11:50 am 11:50 Mostly Sunny 81 27 64 18 58 58 NE 12 19 30.06 1018 10 16 0.00 0.00
1:45 pm 13:45 Partly Cloudy 84 29 64 18 51 51 ENE 9 15 30.03 1017 10 16 0.00 0.00
2:50 pm 14:50 Partly Cloudy 84 29 64 18 51 51 N 15 24 30.02 1017 10 16 0.00 0.00
3:47 pm 15:47 Mostly Sunny 86 30 61 16 43 43 NE 13 20 30.01 1016 10 16 0.00 0.00
5:55 pm 17:55 Mostly Sunny 86 30 63 17 46 46 NE 13 20 29.99 1016 10 16 0.00 0.00
6:45 pm 18:45 Partly Cloudy 82 28 64 18 55 55 NE 9 15 30.00 1016 10 16 0.00 0.00
7:45 pm 19:45 Partly Cloudy 81 27 64 18 58 58 ENE 6 9 30.02 1017 10 16 0.00 0.00
8:48 pm 20:48 Mostly Clear 75 24 66 19 74 74 Calm 30.02 1017 10 16 0.00 0.00
9:45 pm 21:45 Mostly Cloudy 73 23 66 19 78 78 Calm 30.04 1017 10 16 0.00 0.00
10:15 pm 22:15 Partly Cloudy 73 22.7 67 19.2 81 81 NE 3 6 30.05 1018 10 16 0.00 0.00
10:35 pm 22:35 Clear 74 23.1 66 18.8 77 77 NE 3 6 30.05 1018 10 16 0.00 0.00
10:55 pm 22:55 Clear 73 22.6 66 19 80 80 NE 3 6 30.05 1018 10 16 0.00 0.00
11:15 pm 23:15 Clear 73 22.5 66 18.7 79 79 NE 5 7 30.05 1018 10 16 0.00 0.00
11:35 pm 23:35 Clear 71 21.7 65 18.5 82 82 NNE 13 20 30.05 1018 10 16 0.00 0.00
11:55 pm 23:55 Clear 71 21.6 64 18 80 80 NNE 13 20 30.05 1018 10 16 0.00 0.00

Powered by AerisWeather